Weather History for Kansas City International, MO

Change the Weather History Date:

Thursday, September 26, 2013

  Actual Average Record
Temperature  
Mean Temperature 73 °F 64 °F  
Max Temperature 84 °F 75 °F 95 °F (1938)
Min Temperature 61 °F 53 °F 34 °F (1984)
Degree Days  
Heating Degree Days 0 4  
Month to date heating degree days 10 45  
Since 1 July heating degree days 10 47  
Cooling Degree Days 8 3  
Month to date cooling degree days 211 149  
Year to date cooling degree days 1305 1322  
Growing Degree Days 22 (Base 50)    
Moisture  
Dew Point 58 °F    
Average Humidity 67    
Maximum Humidity 90    
Minimum Humidity 43    
Precipitation  
Precipitation 0.00 in 0.16 in 1.58 in (1936)
Month to date precipitation 4.44 4.06  
Year to date precipitation 27.11 31.46  
Snow  
Snow 0.00 in 0.00 in 0.00 in ()
Month to date snowfall 0.0 0.0  
Since 1 July snowfall 0.0 0.0  
Since 1 September snowfall 0.0 0.0  
Snow Depth 0.00 in    
Sea Level Pressure  
Sea Level Pressure 29.86 in    
Wind  
Wind Speed 14 mph (SSE)    
Max Wind Speed 22 mph    
Max Gust Speed 28 mph    
Visibility 10 miles    
Events      
T = Trace of Precipitation, MM = Missing Value Source: NWS Daily Summary

Daily Weather History Graph

Daily Weather History Graph

Search for Another Location

Airport:

Trip Planner

Search our weather history database for the weather conditions in past years. The results will help you decide how hot, cold, wet, or windy it might be!

Date:

Astronomy

Sep. 26, 2013 Rise Set
Actual Time 7:10 AM CDT 7:09 PM CDT
Civil Twilight 6:43 AM CDT 7:35 PM CDT
Nautical Twilight 6:12 AM CDT 8:06 PM CDT
Astronomical Twilight 5:41 AM CDT 8:38 PM CDT
Moon No Moon Rise 2:01 PM CDT (9/26)
Length of Visible Light 12h 51m
Length of Day
11h 58m
Waning Gibbous, 54% of the Moon is Illuminated
Sep 26
Waning Gibbous
Sep 26
Last Quarter
Oct 4
New
Oct 11
First Quarter
Oct 18
Full

Hourly Weather History & Observations

Time (CDT) Temp. Heat Index Dew Point Humidity Pressure Visibility Wind Dir Wind Speed Gust Speed Precip Events Conditions
12:53 AM 63.0 °F - 57.9 °F 84% 29.83 in 10.0 mi SSE 6.9 mph - N/A   Partly Cloudy
1:53 AM 63.0 °F - 57.9 °F 84% 29.84 in 10.0 mi SE 8.1 mph - N/A   Partly Cloudy
2:53 AM 63.0 °F - 59.0 °F 87% 29.84 in 10.0 mi SE 9.2 mph - N/A   Partly Cloudy
3:53 AM 63.0 °F - 59.0 °F 87% 29.84 in 10.0 mi SE 10.4 mph - N/A   Clear
4:53 AM 63.0 °F - 57.9 °F 84% 29.83 in 10.0 mi SE 10.4 mph - N/A   Clear
5:53 AM 61.0 °F - 57.0 °F 87% 29.84 in 10.0 mi SSE 8.1 mph - N/A   Clear
6:53 AM 62.1 °F - 57.9 °F 86% 29.86 in 10.0 mi SSE 11.5 mph 21.9 mph N/A   Clear
7:53 AM 63.0 °F - 57.9 °F 84% 29.89 in 10.0 mi SSE 11.5 mph - N/A   Clear
8:53 AM 66.9 °F - 57.9 °F 73% 29.89 in 10.0 mi SSE 12.7 mph - N/A   Clear
9:53 AM 71.1 °F - 57.9 °F 63% 29.91 in 10.0 mi SSE 13.8 mph - N/A   Clear
10:53 AM 75.0 °F - 57.9 °F 55% 29.91 in 10.0 mi SSE 17.3 mph 23.0 mph N/A   Partly Cloudy
11:53 AM 78.1 °F - 60.1 °F 54% 29.89 in 10.0 mi SSE 16.1 mph 25.3 mph N/A   Partly Cloudy
12:53 PM 79.0 °F - 59.0 °F 50% 29.88 in 10.0 mi SSE 19.6 mph 24.2 mph N/A   Partly Cloudy
1:53 PM 82.0 °F 82.1 °F 59.0 °F 45% 29.86 in 10.0 mi SSE 17.3 mph 25.3 mph N/A   Clear
2:53 PM 82.9 °F 82.6 °F 57.9 °F 42% 29.84 in 10.0 mi SSE 19.6 mph 25.3 mph N/A   Clear
3:53 PM 84.0 °F 83.8 °F 59.0 °F 43% 29.83 in 10.0 mi SSE 17.3 mph 25.3 mph N/A   Clear
4:53 PM 82.9 °F 82.4 °F 57.0 °F 41% 29.83 in 10.0 mi SE 18.4 mph 25.3 mph N/A   Clear
5:53 PM 82.0 °F 82.0 °F 57.9 °F 44% 29.83 in 10.0 mi SSE 13.8 mph - N/A   Clear
6:53 PM 78.1 °F - 57.0 °F 48% 29.84 in 10.0 mi SE 9.2 mph - N/A   Clear
7:53 PM 77.0 °F - 59.0 °F 54% 29.84 in 10.0 mi SE 15.0 mph - N/A   Clear
8:53 PM 75.0 °F - 59.0 °F 57% 29.85 in 10.0 mi SSE 15.0 mph - N/A   Clear
9:53 PM 75.0 °F - 59.0 °F 57% 29.87 in 10.0 mi SSE 15.0 mph - N/A   Clear
10:53 PM 73.9 °F - 59.0 °F 59% 29.88 in 10.0 mi SSE 17.3 mph 24.2 mph N/A   Clear
11:53 PM 73.0 °F - 59.0 °F 61% 29.88 in 10.0 mi SSE 17.3 mph - N/A   Clear